SDM3457 UNKL-UNNT

Flight info

Callsign SDM3457
Flight time N/A
Altitude 36000
Route APRU2F APRUS B926 NATIR NATI1K
Aircraft A319/L-S/L

Departure

Time 2026-05-06 14:58
Airport Krasnoyarsk International Airport (UNKL)

Arrival

Time N/A
Airport Novosibirsk Tolmachevo Airport (UNNT)
Time Latitude Longitude Altitude Speed Heading
2026-05-06 14:32 56.18071 92.47530 947 ft 0 kts 21°
2026-05-06 14:50 56.18079 92.47535 947 ft 2 kts 21°
2026-05-06 14:50 56.18104 92.47556 947 ft 4 kts 37°
2026-05-06 14:50 56.18110 92.47617 947 ft 6 kts 105°
2026-05-06 14:50 56.18093 92.47696 947 ft 7 kts 113°
2026-05-06 14:51 56.18071 92.47788 947 ft 8 kts 113°
2026-05-06 14:51 56.18045 92.47897 947 ft 10 kts 110°
2026-05-06 14:51 56.18000 92.47984 947 ft 10 kts 178°
2026-05-06 14:51 56.17927 92.47942 947 ft 11 kts 201°
2026-05-06 14:52 56.17853 92.47947 948 ft 12 kts 132°
2026-05-06 14:52 56.17817 92.48089 947 ft 12 kts 117°
2026-05-06 14:52 56.17777 92.48238 947 ft 13 kts 112°
2026-05-06 14:52 56.17738 92.48400 947 ft 14 kts 112°
2026-05-06 14:53 56.17697 92.48573 947 ft 15 kts 112°
2026-05-06 14:53 56.17654 92.48752 947 ft 15 kts 112°
2026-05-06 14:53 56.17610 92.48937 947 ft 16 kts 112°
2026-05-06 14:53 56.17565 92.49128 947 ft 16 kts 112°
2026-05-06 14:54 56.17519 92.49323 947 ft 17 kts 112°
2026-05-06 14:54 56.17471 92.49524 947 ft 17 kts 112°
2026-05-06 14:54 56.17422 92.49727 947 ft 17 kts 112°
2026-05-06 14:54 56.17373 92.49934 947 ft 18 kts 112°
2026-05-06 14:55 56.17325 92.50135 947 ft 16 kts 112°
2026-05-06 14:55 56.17283 92.50314 947 ft 14 kts 112°
2026-05-06 14:55 56.17219 92.50426 947 ft 14 kts 194°
2026-05-06 14:55 56.17164 92.50382 947 ft 0 kts 205°
2026-05-06 14:56 56.17158 92.50377 947 ft 2 kts 205°
2026-05-06 14:56 56.17130 92.50352 947 ft 6 kts 204°
2026-05-06 14:57 56.17081 92.50314 947 ft 8 kts 204°
2026-05-06 14:57 56.17070 92.50230 947 ft 0 kts 295°
2026-05-06 14:57 56.17072 92.50224 947 ft 4 kts 295°
2026-05-06 14:57 56.17202 92.49672 948 ft 91 kts 293°
2026-05-06 14:58 56.17551 92.48235 1040 ft 150 kts 293°
2026-05-06 14:58 56.17982 92.46489 1662 ft 160 kts 294°
2026-05-06 14:58 56.18447 92.44632 2336 ft 174 kts 294°
2026-05-06 14:58 56.18963 92.42545 2936 ft 201 kts 292°
2026-05-06 14:59 56.19565 92.39957 3282 ft 243 kts 292°
2026-05-06 14:59 56.20221 92.37121 4457 ft 247 kts 292°
2026-05-06 14:59 56.20849 92.34428 5900 ft 236 kts 292°
2026-05-06 14:59 56.21439 92.31855 7280 ft 224 kts 287°
2026-05-06 15:00 56.21563 92.29329 8493 ft 214 kts 257°
2026-05-06 15:00 56.21126 92.26833 9531 ft 213 kts 249°
2026-05-06 15:00 56.20587 92.24367 10438 ft 217 kts 248°
2026-05-06 15:00 56.20028 92.21860 11338 ft 221 kts 248°
2026-05-06 15:01 56.19464 92.19309 12227 ft 225 kts 248°
2026-05-06 15:01 56.18896 92.16713 13101 ft 228 kts 248°
2026-05-06 15:01 56.18324 92.14080 13958 ft 232 kts 248°
2026-05-06 15:01 56.17735 92.11359 14813 ft 235 kts 248°
2026-05-06 15:02 56.17148 92.08646 15634 ft 238 kts 248°
2026-05-06 15:02 56.16549 92.05875 16424 ft 242 kts 248°
2026-05-06 15:02 56.15942 92.03067 17173 ft 245 kts 249°
2026-05-06 15:02 56.15326 92.00221 17887 ft 248 kts 249°
2026-05-06 15:03 56.14702 91.97340 18568 ft 251 kts 249°
2026-05-06 15:03 56.14067 91.94413 19220 ft 255 kts 249°
2026-05-06 15:03 56.13425 91.91458 19851 ft 258 kts 249°
2026-05-06 15:03 56.12774 91.88464 20477 ft 261 kts 249°
2026-05-06 15:04 56.12114 91.85432 21097 ft 264 kts 249°
2026-05-06 15:04 56.11445 91.82363 21706 ft 267 kts 249°
2026-05-06 15:04 56.10768 91.79264 22305 ft 270 kts 249°
2026-05-06 15:04 56.10083 91.76135 22895 ft 273 kts 249°
2026-05-06 15:05 56.09391 91.72977 23477 ft 276 kts 249°
2026-05-06 15:05 56.08682 91.69743 24054 ft 279 kts 249°
2026-05-06 15:05 56.07975 91.66528 24610 ft 281 kts 249°
2026-05-06 15:05 56.07258 91.63271 25155 ft 284 kts 249°
2026-05-06 15:06 56.06534 91.59984 25689 ft 287 kts 249°
2026-05-06 15:06 56.05801 91.56664 26210 ft 289 kts 249°
2026-05-06 15:06 56.05061 91.53316 26720 ft 292 kts 249°
2026-05-06 15:06 56.04313 91.49938 27218 ft 295 kts 249°
2026-05-06 15:07 56.03555 91.46517 27708 ft 297 kts 249°
2026-05-06 15:07 56.02791 91.43077 28186 ft 300 kts 249°
2026-05-06 15:07 56.02027 91.39642 28649 ft 302 kts 249°
2026-05-06 15:07 56.01244 91.36129 29110 ft 305 kts 249°
2026-05-06 15:08 56.00463 91.32629 29555 ft 307 kts 248°
2026-05-06 15:08 55.99668 91.29063 29996 ft 310 kts 248°
2026-05-06 15:08 55.98880 91.25464 30425 ft 312 kts 250°
2026-05-06 15:08 55.98237 91.21794 30836 ft 314 kts 255°
2026-05-06 15:09 55.97746 91.17971 31246 ft 317 kts 258°
2026-05-06 15:09 55.97302 91.14158 31645 ft 319 kts 258°
2026-05-06 15:09 55.96851 91.10246 32041 ft 321 kts 258°
2026-05-06 15:09 55.96399 91.06357 32422 ft 323 kts 258°
2026-05-06 15:10 55.95937 91.02402 32786 ft 326 kts 258°
2026-05-06 15:10 55.95472 90.98455 33128 ft 329 kts 258°
2026-05-06 15:10 55.94995 90.94429 33464 ft 332 kts 258°
2026-05-06 15:10 55.94515 90.90392 33788 ft 335 kts 258°
2026-05-06 15:11 55.94032 90.86348 34099 ft 338 kts 258°
2026-05-06 15:11 55.93542 90.82257 34402 ft 341 kts 258°
2026-05-06 15:11 55.93207 90.79469 34602 ft 343 kts 258°
2026-05-06 15:11 55.92538 90.73914 34986 ft 347 kts 258°
2026-05-06 15:12 55.92026 90.69679 35267 ft 350 kts 258°
2026-05-06 15:12 55.91517 90.65484 35533 ft 352 kts 258°
2026-05-06 15:12 55.90993 90.61184 35794 ft 355 kts 258°
2026-05-06 15:12 55.90464 90.56851 35971 ft 361 kts 258°
2026-05-06 15:13 55.89928 90.52473 35982 ft 371 kts 258°
2026-05-06 15:13 55.88766 90.43240 35989 ft 390 kts 258°
2026-05-06 15:14 55.87558 90.33631 35990 ft 408 kts 257°
2026-05-06 15:14 55.86301 90.23592 35991 ft 425 kts 257°
2026-05-06 15:15 55.84990 90.13169 35991 ft 441 kts 257°
2026-05-06 15:15 55.83624 90.02383 35991 ft 454 kts 257°
2026-05-06 15:16 55.82211 89.91318 35991 ft 466 kts 257°
2026-05-06 15:16 55.80759 89.80035 35991 ft 474 kts 257°
2026-05-06 15:16 55.80027 89.74371 35986 ft 461 kts 257°
2026-05-06 15:17 55.79321 89.68929 35985 ft 444 kts 257°
2026-05-06 15:17 55.78638 89.63680 35985 ft 428 kts 257°
2026-05-06 15:17 55.77980 89.58638 35984 ft 413 kts 257°
2026-05-06 15:17 55.77344 89.53776 35984 ft 398 kts 257°
2026-05-06 15:18 55.76729 89.49085 35983 ft 383 kts 257°
2026-05-06 15:18 55.76136 89.44579 35983 ft 369 kts 257°
2026-05-06 15:18 55.75560 89.40208 35988 ft 364 kts 257°
2026-05-06 15:19 55.74371 89.31245 35992 ft 383 kts 256°
2026-05-06 15:19 55.73114 89.21817 35992 ft 402 kts 256°
2026-05-06 15:20 55.71796 89.12007 35992 ft 419 kts 256°
2026-05-06 15:20 55.70408 89.01777 35992 ft 435 kts 256°
2026-05-06 15:21 55.68971 88.91271 35992 ft 449 kts 256°
2026-05-06 15:21 55.67477 88.80396 35985 ft 449 kts 256°
2026-05-06 15:21 55.66750 88.75122 35986 ft 433 kts 256°
2026-05-06 15:22 55.66026 88.69873 35989 ft 426 kts 256°
2026-05-06 15:22 55.64612 88.59663 35989 ft 425 kts 256°
2026-05-06 15:23 55.63207 88.49586 35989 ft 425 kts 256°
2026-05-06 15:23 55.61781 88.39430 35989 ft 425 kts 256°
2026-05-06 15:24 55.60356 88.29333 35989 ft 425 kts 256°
2026-05-06 15:24 55.58923 88.19231 35990 ft 425 kts 256°
2026-05-06 15:25 55.57473 88.09093 35990 ft 425 kts 256°
2026-05-06 15:25 55.56023 87.99023 35990 ft 425 kts 256°
2026-05-06 15:26 55.54561 87.88932 35989 ft 425 kts 256°
2026-05-06 15:26 55.53101 87.78920 35989 ft 425 kts 256°
2026-05-06 15:27 55.51625 87.68850 35989 ft 425 kts 256°
2026-05-06 15:27 55.50141 87.58804 35989 ft 425 kts 256°
2026-05-06 15:28 55.48635 87.48727 35989 ft 424 kts 255°
2026-05-06 15:28 55.47114 87.38678 35990 ft 424 kts 255°
2026-05-06 15:29 55.45587 87.28606 35989 ft 424 kts 255°
2026-05-06 15:29 55.44058 87.18561 35989 ft 424 kts 255°
2026-05-06 15:30 55.42522 87.08543 35989 ft 424 kts 255°
2026-05-06 15:30 55.40977 86.98533 35989 ft 424 kts 255°
2026-05-06 15:31 55.39423 86.88525 35990 ft 424 kts 255°
2026-05-06 15:31 55.37858 86.78503 35990 ft 424 kts 255°
2026-05-06 15:32 55.35499 86.63512 35990 ft 424 kts 255°
2026-05-06 15:32 55.33920 86.53552 35990 ft 424 kts 255°
2026-05-06 15:33 55.32335 86.43607 35990 ft 424 kts 255°
2026-05-06 15:33 55.30730 86.33581 35990 ft 424 kts 254°
2026-05-06 15:34 55.29395 86.25285 35989 ft 424 kts 254°
2026-05-06 15:34 55.27605 86.13666 35989 ft 424 kts 257°
2026-05-06 15:35 55.26682 86.03508 35989 ft 424 kts 264°
2026-05-06 15:35 55.26425 85.98378 35844 ft 422 kts 265°
2026-05-06 15:35 55.26181 85.93192 35064 ft 429 kts 265°
2026-05-06 15:36 55.25935 85.87986 34111 ft 438 kts 265°
2026-05-06 15:36 55.25681 85.82677 33345 ft 441 kts 265°
2026-05-06 15:36 55.25423 85.77361 32671 ft 441 kts 265°
2026-05-06 15:36 55.25156 85.71953 31980 ft 441 kts 265°
2026-05-06 15:37 55.24892 85.66646 31266 ft 442 kts 265°
2026-05-06 15:37 55.24623 85.61321 30524 ft 443 kts 265°
2026-05-06 15:37 55.24352 85.55987 29938 ft 439 kts 265°
2026-05-06 15:37 55.24078 85.50648 29421 ft 434 kts 265°
2026-05-06 15:38 55.23810 85.45472 28876 ft 430 kts 265°
2026-05-06 15:38 55.23536 85.40232 28299 ft 426 kts 265°
2026-05-06 15:38 55.23266 85.35106 27728 ft 422 kts 265°
2026-05-06 15:38 55.22998 85.30041 27160 ft 419 kts 264°
2026-05-06 15:39 55.22729 85.25009 26589 ft 415 kts 264°
2026-05-06 15:39 55.22461 85.20013 26019 ft 411 kts 264°
2026-05-06 15:39 55.22193 85.15079 25457 ft 408 kts 264°
2026-05-06 15:39 55.21923 85.10136 24892 ft 404 kts 264°
2026-05-06 15:40 55.21656 85.05285 24337 ft 401 kts 264°
2026-05-06 15:40 55.21389 85.00470 23788 ft 397 kts 264°
2026-05-06 15:40 55.21123 84.95715 23246 ft 394 kts 264°
2026-05-06 15:40 55.20854 84.90929 22703 ft 391 kts 264°
2026-05-06 15:41 55.20588 84.86243 22173 ft 387 kts 264°
2026-05-06 15:41 55.20322 84.81584 21648 ft 384 kts 264°
2026-05-06 15:41 55.20055 84.76969 21131 ft 381 kts 264°
2026-05-06 15:41 55.19751 84.72402 20619 ft 378 kts 262°
2026-05-06 15:42 55.19263 84.67930 20114 ft 375 kts 257°
2026-05-06 15:42 55.18578 84.63509 19608 ft 372 kts 254°
2026-05-06 15:42 55.17840 84.59205 19113 ft 370 kts 253°
2026-05-06 15:42 55.17099 84.54943 18622 ft 367 kts 253°
2026-05-06 15:43 55.16361 84.50706 18137 ft 364 kts 253°
2026-05-06 15:43 55.15630 84.46501 17651 ft 362 kts 253°
2026-05-06 15:43 55.14893 84.42261 17093 ft 362 kts 253°
2026-05-06 15:43 55.14166 84.38081 16625 ft 359 kts 253°
2026-05-06 15:44 55.13443 84.33936 16191 ft 355 kts 252°
2026-05-06 15:44 55.12735 84.29864 15775 ft 352 kts 253°
2026-05-06 15:44 55.12025 84.25796 15364 ft 348 kts 253°
2026-05-06 15:44 55.11318 84.21755 14957 ft 345 kts 253°
2026-05-06 15:45 55.10627 84.17802 14556 ft 342 kts 254°
2026-05-06 15:45 55.10130 84.13748 14045 ft 342 kts 261°
2026-05-06 15:45 55.09774 84.09647 13550 ft 340 kts 262°
2026-05-06 15:45 55.09437 84.05582 13085 ft 338 kts 262°
2026-05-06 15:46 55.09092 84.01575 12619 ft 335 kts 261°